Lancaster, OH

7:12 AM EDT on May 27, 2017 (GMT -0400)
Fairfield County

Weather History for KLHQ - October, 2012

Change the Weather History Date:

Tuesday, October 9, 2012

  Actual Average Record
Temperature  
Mean Temperature 44 °F -  
Max Temperature 59 °F 67 °F 90 °F (1939)
Min Temperature 28 °F 42 °F 28 °F (2000)
Degree Days  
Heating Degree Days 22    
Moisture  
Dew Point 33 °F    
Average Humidity 82    
Maximum Humidity 100    
Minimum Humidity 39    
Precipitation  
Precipitation 0.00 in - - ()
Sea Level Pressure  
Sea Level Pressure 30.16 in    
Wind  
Wind Speed 1 mph (South)    
Max Wind Speed 9 mph    
Max Gust Speed -    
Visibility 5 miles    
Events Fog    
Averages and records for this station are not official NWS values.
T = Trace of Precipitation, MM = Missing Value Source: NWS Daily Summary

Daily Weather History Graph

Daily Weather History Graph

Search for Another Location

Airport or City:

Trip Planner

Search our weather history database for the weather conditions in past years. The results will help you decide how hot, cold, wet, or windy it might be!

Date:

Astronomy

Oct. 09, 2012 Rise Set
Actual Time 7:35 AM EDT 6:59 PM EDT
Civil Twilight 7:08 AM EDT 7:26 PM EDT
Nautical Twilight 6:36 AM EDT 7:57 PM EDT
Astronomical Twilight 6:05 AM EDT 8:29 PM EDT
Moon 1:11 AM EDT (10/9) 3:25 PM EDT (10/9)
Length of Visible Light 12h 18m
Length of Day
11h 24m
Last Quarter, 37% of the Moon is Illuminated
Oct 9
Last Quarter
Oct 15
New
Oct 21
First Quarter
Oct 29
Full
Nov 6
Last Quarter

Hourly Weather History & Observations

Time (EDT) Temp. Windchill Dew Point Humidity Pressure Visibility Wind Dir Wind Speed Gust Speed Precip Events Conditions
12:53 AM 33.1 °F - 30.0 °F 89% 30.21 in 3.0 mi Calm Calm - N/A   Clear
1:03 AM 33.8 °F - 30.2 °F 87% 30.19 in 2.5 mi Calm Calm - N/A   Clear
1:17 AM 32.0 °F - 30.2 °F 93% 30.19 in 3.0 mi Calm Calm - N/A   Clear
1:53 AM 32.0 °F - 28.9 °F 88% 30.20 in 3.0 mi Calm Calm - N/A   Clear
2:20 AM 30.2 °F - 28.4 °F 93% 30.19 in 1.8 mi Calm Calm - N/A   Clear
2:24 AM 30.2 °F - 28.4 °F 93% 30.19 in 0.8 mi Calm Calm - N/A   Clear
2:38 AM 32.0 °F - 30.2 °F 93% 30.18 in 2.5 mi Calm Calm - N/A   Clear
2:45 AM 30.2 °F - 28.4 °F 93% 30.18 in 7.0 mi Calm Calm - N/A   Clear
2:53 AM 30.9 °F - 28.9 °F 92% 30.20 in 5.0 mi Calm Calm - N/A   Clear
2:59 AM 30.2 °F - 28.4 °F 93% 30.18 in 2.0 mi Calm Calm - N/A   Partly Cloudy
3:01 AM 30.2 °F - 28.4 °F 93% 30.18 in 1.0 mi Calm Calm - N/A   Mist
3:08 AM 30.2 °F - 28.4 °F 93% 30.18 in 0.2 mi Calm Calm - N/A Fog Light Freezing Fog
4:53 AM 30.0 °F - 28.0 °F 92% 30.19 in 0.2 mi Calm Calm - N/A Fog Light Freezing Fog
5:53 AM 30.0 °F - 28.0 °F 92% 30.19 in 1.2 mi Calm Calm - N/A   Scattered Clouds
5:58 AM 30.2 °F - 28.4 °F 93% 30.17 in 2.5 mi Calm Calm - N/A   Scattered Clouds
6:07 AM 30.2 °F - 26.6 °F 86% 30.17 in 4.0 mi Calm Calm - N/A   Clear
6:19 AM 28.4 °F - 26.6 °F 93% 30.17 in 2.0 mi Calm Calm - N/A   Partly Cloudy
6:22 AM 28.4 °F - 26.6 °F 93% 30.18 in 1.0 mi Calm Calm - N/A   Mist
6:29 AM 30.2 °F - 28.4 °F 93% 30.18 in 0.2 mi Calm Calm - N/A Fog Light Freezing Fog
6:53 AM 30.9 °F - 30.0 °F 96% 30.20 in 0.2 mi Calm Calm - N/A Fog Light Freezing Fog
7:53 AM 32.0 °F - 30.9 °F 96% 30.22 in 0.2 mi Calm Calm - N/A Fog Fog
8:53 AM 33.1 °F 30.0 °F 33.1 °F 100% 30.23 in 0.2 mi South 3.5 mph - N/A Fog Fog
9:14 AM 35.6 °F - 35.6 °F 100% 30.21 in 1.2 mi Calm Calm - N/A   Mostly Cloudy
9:20 AM 37.4 °F 34.9 °F 35.6 °F 93% 30.21 in 2.5 mi SSE 3.5 mph - N/A   Mostly Cloudy
9:28 AM 37.4 °F - 37.4 °F 100% 30.21 in 3.0 mi Calm Calm - N/A   Scattered Clouds
9:53 AM 39.9 °F 37.8 °F 37.9 °F 93% 30.22 in 5.0 mi SSE 3.5 mph - N/A   Clear
10:53 AM 46.9 °F - 41.0 °F 80% 30.20 in 9.0 mi Calm Calm - N/A   Clear
11:53 AM 51.1 °F - 41.0 °F 68% 30.19 in 10.0 mi Calm Calm - N/A   Partly Cloudy
12:53 PM 54.0 °F - 39.0 °F 57% 30.17 in 10.0 mi South 5.8 mph - N/A   Clear
1:53 PM 57.0 °F - 39.0 °F 51% 30.12 in 10.0 mi SSW 9.2 mph - N/A   Clear
2:53 PM 57.9 °F - 37.9 °F 47% 30.09 in 10.0 mi South 9.2 mph - N/A   Clear
3:53 PM 59.0 °F - 36.0 °F 42% 30.07 in 10.0 mi SSW 9.2 mph - N/A   Clear
4:53 PM 59.0 °F - 34.0 °F 39% 30.06 in 10.0 mi SSW 5.8 mph - N/A   Clear
5:53 PM 57.0 °F - 34.0 °F 42% 30.05 in 10.0 mi South 8.1 mph - N/A   Clear
6:53 PM 53.1 °F - 35.1 °F 50% 30.06 in 10.0 mi South 8.1 mph - N/A   Clear
7:53 PM 48.0 °F - 36.0 °F 63% 30.06 in 10.0 mi SSE 6.9 mph - N/A   Clear
8:53 PM 46.0 °F 43.1 °F 37.0 °F 71% 30.04 in 10.0 mi SSE 5.8 mph - N/A   Clear
9:53 PM 44.1 °F 40.8 °F 37.0 °F 76% 30.04 in 10.0 mi SSE 5.8 mph - N/A   Clear
10:53 PM 43.0 °F 41.3 °F 37.9 °F 82% 30.03 in 10.0 mi SSE 3.5 mph - N/A   Clear
11:53 PM 39.9 °F 37.8 °F 36.0 °F 86% 30.01 in 10.0 mi SSE 3.5 mph - N/A   Clear